Location: Powell Observatory
(38.6461°N, 94.6997°W)
Time: 08:12:12
(UTC-06:00)

Tiangong - Visible Passes

Search period start: 28 November 2021 00:00
Search period end: 08 December 2021 00:00
Orbit: 381 x 385 km, 41.5° (Epoch: 28 November)

Date Brightness Start Highest point End Pass type
(mag) Time Alt. Az. Time Alt. Az. Time Alt. Az.
05 Dec 3.8 18:58:35 10° SSW 18:59:10 13° S 18:59:10 13° S visible
06 Dec 3.5 17:59:46 10° SSE 18:00:47 11° SE 18:01:48 10° SE visible
06 Dec 4.6 19:34:01 10° WSW 19:34:01 10° WSW 19:34:01 10° WSW visible
07 Dec 2.1 18:33:53 10° SW 18:36:37 34° SSE 18:36:37 34° SSE visible
